Location: Lombard
(41.8800°N, 88.0080°W)
Time: 12:34:42
(UTC-06:00)

Transit 4A - Pass Details

Date: 03 December 2023
Orbit: 870 x 973 km, 66.8° (Epoch: 02 March)

Event Time Altitude Azimuth Distance (km) Brightness Sun altitude
Rises 07:03:27 0° 311° (NW) 3,568 - -0.6°
Exits shadow 07:03:32 - 311° (NW) 3,545 10.3 -0.6°
Reaches altitude 10° 07:07:23 10° 286° (WNW) 2,596 9.6 0.0°
Maximum altitude 07:10:08 13° 259° (WSW) 2,330 9.6 0.5°
Drops below altitude 10° 07:12:52 10° 231° (SW) 2,556 10.0 0.9°
Sets 07:16:42 0° 206° (SSW) 3,470 11.0 1.5°
